Regional Weather Roundup
Issued by NWS New Orleans/Baton Rouge, LA

Home | Current Version | Previous Version | Graphics & Text | Print | Product List | Glossary On
Versions: 1 2 3 4 5 6 7 8 9 10 11 12 13 14 15 16 17 18 19 20 21 22 23 24 25 26 27 28 29 30 31 32 33 34 35 36 37 38 39 40 41 42 43 44 45 46 47 48 49 50
047
ASUS44 KLIX 282101
RWRLIX
NEW ORLEANS REGIONAL WEATHER ROUNDUP
NATIONAL WEATHER SERVICE NEW ORLEANS LA
300 PM CST FRI NOV 28 2014

NOTE: "FAIR" INDICATES FEW OR NO CLOUDS BELOW 12,000 FEET WITH NO
      SIGNIFICANT WEATHER AND/OR OBSTRUCTIONS TO VISIBILITY.
      SKY/WX - SKY CONDITION AND SIGNIFICANT WEATHER.
      TMP - AIR TEMPERATURE.     DP    - DEWPOINT TEMPERATURE.
      RH  - RELATIVE HUMIDITY.   PRES  - PRESSURE.
      HI  - HEAT INDEX.          WCI   - WIND CHILL INDEX.

*  THESE STATIONS ARE NOT NWS OR FAA STATIONS AND ARE NOT UNDER
   NWS QUALITY CONTROL.

LAZ038-040-048-061>063-065>067-069-282200-
SOUTHEAST LOUISIANA

CITY           SKY/WX    TMP DP  RH WIND       PRES   REMARKS
N.O. AUDUBON     N/A     59  44  57 MISG        N/A
N.O. INTL ARPT MOSUNNY   61  41  47 VRB7      30.30F
N.O. LAKEFRONT SUNNY     57  41  55 E8        30.32F
N.O. DOWNTOWN*   N/A     55  39  54 NE7       30.31F
SLIDELL        SUNNY     58  35  42 S7        30.31F
BATON ROUGE    SUNNY     61  32  33 SE8       30.28F
BOOTHVILLE     SUNNY     59  48  67 NE7       30.31F
BELLE CHASSE   SUNNY     59  38  45 E10       30.31F
BOGALUSA*      NOT AVBL
NEW ROADS*     NOT AVBL
GONZALES*      NOT AVBL
HAMMOND*       NOT AVBL
HOUMA*         SUNNY     63  41  45 SE5       30.30F
PORT FOURCHON* NOT AVBL

$$

MSZ070-080>082-282200-
SOUTHERN MISSISSIPPI

CITY           SKY/WX    TMP DP  RH WIND       PRES   REMARKS
MCCOMB         SUNNY     59  26  28 S8        30.28F
GULFPORT       SUNNY     54  35  48 SE7       30.31F
BILOXI         SUNNY     55  36  48 S6        30.31F
PASCAGOULA     SUNNY     59  35  40 SW7       30.31F
STENNIS ARPT*  SUNNY     57  25  28 CALM      30.32F

$$

COASTAL OBSERVATIONS
LAKE AND NEARSHORE STATIONS

STATION/POSITION TIME  TEMP    WIND        PRES    WAVE
                       AIR SEA DIR/SP/G            HT/PER
                 (UTC) (F)     (DEG/KT/KT) (MB)    (FT/S)
PASCAGOULA       2000   56     180/  5/  6 1026.1
WAVELAND YACHT   2000   50     160/  8/ 10 1025.9
GRAND ISLE       2000   58 58   80/  7/  9 1026.6
SOUTHWEST PASS   2000   70                 1026.2
NEW CANAL        2000   57 54   80/  4/  7 1026.8
SHELL BEACH      2000   55 52   60/ 10/ 10 1026.5

OFFSHORE STATIONS

STATION/POSITION TIME  TEMP    WIND        PRES    WAVE
                       AIR SEA DIR/SP/G            HT/PER
                 (UTC) (F)     (DEG/KT/KT) (MB)    (FT/S)
64 S DAUPHIN ISL 2047   58 72   60/  8/ 12 1026.8    3/ 6

$$




USA.gov is the U.S. government's official web portal to all federal, state and local government web resources and services.